星链-30426 (STARLINK-30426 )

导读

STARLINK-30426是美国SpaceX公司星链(Starlink)星座的一颗低轨通信卫星,于2023年9月12日发射。作为全球覆盖的宽带互联网星座组成部分,它采用平板设计搭载霍尔推进器,配备Ku/Ka波段通信载荷,具备自主避撞能力,服役寿命约5-7年,退役后会再入大气层烧毁,助力实现全球无缝高速互联网接入。

基本信息
目录编号:
57848
目录名称:
STARLINK-30426
国际标识:
2023-141J
轨道中心:
EARTH
卫星名称:
星链-30426
卫星全名:
星链-30426 (STARLINK-30426 )
卫星状态:
在轨 (已飞行1010 天)
发射日期:
2023-09-12 UTC
国别 :
美国 (US)
星等 :
--
轨道信息
数据来源 国际轨道数据 AOE轨道数据
星历时间 2026-06-17T16:34:08+0800
1天前
查看轨道信息
2026-06-16T07:00:00+0800
2天前
查看轨道信息
半长轴 6853.374km 6853.383km
偏心率 0.0001218 0.0001438
轨道倾角 53.159° 53.159°
近地点辐角 86.971° 39.466°
升交点赤经 181.210° 187.719°
平近点角 273.143° 171.302°
近地点 474.402km 474.26km
远地点 476.072km 476.232km
周期 94.106分钟 94.106分钟
每日圈数 15.301928 15.301898
详细信息
固有亮度:
5
最大亮度:
0.3
卫星平台:
Starlink v2.0 mini
覆盖范围:
全球
运营商:
太空探索技术公司
运营商所在国:
美国
制造商(研发单位):
太空探索技术公司
制造商所在国:
美国
使用方式:
暂无
卫星简介
星链(Starlink)计划是由太空探索技术公司(SpaceX)提出的一个巨型低轨卫星互联网星座项目,计划在2019年至2024年间在太空搭建由约1.2万颗卫星组成的“星链”网络,其中1584颗将部署在地球上空550千米处的近地轨道,并从2020年开始工作。该卫星仍在工作。
2D轨道图
3D轨道图
轨道高度分析图
轨道倾角分析图
轨道综合分析图
查看轨道综合分析图